EW8633 Weather Reports


time (UTC)temp
C
wind
direction
speed
KPH
gust
KPH
rain 1hr
cm
rain 24hr
cm
rain mn
cm
humidity
%
barometer
mb
20260906065308 27 329 0.0 8.0 0.00 0.00 0.00 77 999.7
20260906064307 27 127 4.8 14.5 0.00 0.00 0.00 78 999.8
20260906062307 27 255 0.0 0.0 0.00 0.00 0.00 78 999.8
20260906061307 27 255 0.0 0.0 0.00 0.00 0.00 78 999.9
20260906055307 27 278 0.0 1.6 0.00 0.00 0.00 78 1000.0
20260906052807 27 116 0.0 0.0 0.00 0.00 0.00 76 999.9
20260906052307 27 116 0.0 1.6 0.00 0.00 0.00 76 1000.0
20260906051807 27 125 0.0 1.6 0.00 0.00 0.00 76 1000.0
20260906051307 27 317 0.0 1.6 0.00 0.00 0.00 76 999.9
20260906050307 27 132 0.0 1.6 0.00 0.00 0.00 75 999.9
20260906044807 27 133 0.0 3.2 0.00 0.00 0.00 74 999.9
20260906043307 27 95 0.0 0.0 0.00 0.00 0.00 74 999.7
20260906042807 28 95 0.0 1.6 0.00 0.00 0.00 74 999.7
20260906041807 28 320 1.6 3.2 0.00 0.00 0.00 73 999.7
20260906041307 28 130 0.0 1.6 0.00 0.00 0.00 72 999.7
20260906040807 28 247 0.0 0.0 0.00 0.00 0.00 73 999.7
20260906035307 28 295 0.0 1.6 0.00 0.00 0.00 72 999.7
20260906033807 28 310 0.0 3.2 0.00 0.00 0.00 70 999.7
20260906033307 28 308 0.0 3.2 0.00 0.00 0.00 70 999.8
20260906031307 28 144 0.0 1.6 0.00 0.00 0.00 70 999.7
20260906030807 29 117 0.0 1.6 0.00 0.00 0.00 70 999.7
20260906025307 29 306 1.6 3.2 0.00 0.00 0.00 68 999.6
20260906023307 29 174 0.0 1.6 0.00 0.00 0.00 66 999.6
20260906022807 30 45 0.0 1.6 0.00 0.00 0.00 67 999.6
20260906022307 30 321 0.0 1.6 0.00 0.00 0.00 66 999.5
20260906020807 30 321 0.0 0.0 0.00 0.00 0.00 65 999.5
20260906020307 30 321 0.0 0.0 0.00 0.00 0.00 65 999.4
20260906014807 30 321 0.0 0.0 0.00 0.00 0.00 64 999.2
20260906013807 31 321 0.0 0.0 0.00 0.00 0.00 63 999.1
20260906013307 31 321 0.0 0.0 0.00 0.00 0.00 62 999.0
20260906012807 31 321 0.0 0.0 0.00 0.00 0.00 62 998.9
20260906011806 31 339 0.0 0.0 0.00 0.00 0.00 60 998.8
20260906010307 31 313 0.0 1.6 0.00 0.00 0.00 58 998.6
20260906004307 32 307 0.0 1.6 0.00 0.00 0.00 56 998.6
20260906003807 32 311 0.0 0.0 0.00 0.00 0.00 56 998.6
20260906003308 32 311 0.0 1.6 0.00 0.00 0.00 56 998.6
20260906001807 33 116 0.0 0.0 0.00 0.00 0.00 53 998.6
20260906001307 33 116 0.0 0.0 0.00 0.00 0.00 52 998.5
20260906000807 34 116 0.0 0.0 0.00 0.00 0.00 52 998.5
20260906000306 34 116 0.0 0.0 0.00 0.00 0.00 53 998.6
20260905235807 35 116 0.0 1.6 0.00 0.00 0.00 52 998.7
20260905234807 35 127 0.0 0.0 0.00 0.00 0.00 49 998.7
20260905234307 36 127 0.0 0.0 0.00 0.00 0.00 49 998.6
20260905233307 36 118 1.6 4.8 0.00 0.00 0.00 48 998.6
20260905232807 36 133 1.6 4.8 0.00 0.00 0.00 46 998.6
20260905231807 37 123 1.6 9.7 0.00 0.00 0.00 44 998.7
20260905230807 36 341 0.0 3.2 0.00 0.00 0.00 45 998.8
20260905230306 37 310 0.0 4.8 0.00 0.00 0.00 45 998.7
20260905225807 37 110 0.0 8.0 0.00 0.00 0.00 44 998.7
20260905225307 37 144 0.0 4.8 0.00 0.00 0.00 43 998.7
20260905224807 37 113 1.6 8.0 0.00 0.00 0.00 44 998.7
20260905223807 37 125 0.0 8.0 0.00 0.00 0.00 44 998.7
20260905223307 37 84 1.6 8.0 0.00 0.00 0.00 45 998.7
20260905222307 37 136 3.2 9.7 0.00 0.00 0.00 46 998.7
20260905220807 38 121 1.6 4.8 0.00 0.00 0.00 43 998.7
20260905215307 39 299 1.6 4.8 0.00 0.00 0.00 39 998.7
20260905212307 39 35 1.6 8.0 0.00 0.00 0.00 40 998.9
20260905205807 40 319 3.2 8.0 0.00 0.00 0.00 40 999.0
20260905205307 40 106 3.2 11.3 0.00 0.00 0.00 40 999.1
20260905204807 40 313 3.2 8.0 0.00 0.00 0.00 40 999.2
20260905203807 39 121 1.6 9.7 0.00 0.00 0.00 40 999.2
20260905202808 40 333 1.6 4.8 0.00 0.00 0.00 40 999.4
20260905202306 40 73 4.8 9.7 0.00 0.00 0.00 40 999.5
20260905201807 40 199 1.6 8.0 0.00 0.00 0.00 40 999.6
20260905194806 40 108 1.6 9.7 0.00 0.00 0.00 39 1000.0
20260905194307 39 67 1.6 8.0 0.00 0.00 0.00 39 1000.0
20260905193807 38 131 3.2 8.0 0.00 0.00 0.00 42 1000.1
20260905192807 40 333 3.2 9.7 0.00 0.00 0.00 40 1000.3
20260905191806 40 275 1.6 8.0 0.00 0.00 0.00 41 1000.4
20260905191307 40 276 1.6 8.0 0.00 0.00 0.00 40 1000.4
20260905190307 40 325 3.2 12.9 0.00 0.00 0.00 41 1000.5
20260905184806 39 109 4.8 11.3 0.00 0.00 0.00 42 1000.7
20260905183807 38 295 4.8 11.3 0.00 0.00 0.00 43 1000.7
20260905183309 39 110 4.8 14.5 0.00 0.00 0.00 42 1000.8
20260905182807 39 150 3.2 11.3 0.00 0.00 0.00 43 1000.9
20260905182307 38 294 1.6 4.8 0.00 0.00 0.00 44 1000.9
20260905175807 37 120 3.2 8.0 0.00 0.00 0.00 45 1001.2
20260905175307 37 339 1.6 8.0 0.00 0.00 0.00 45 1001.2
20260905174307 37 345 1.6 4.8 0.00 0.00 0.00 46 1001.3
20260905173307 37 338 3.2 8.0 0.00 0.00 0.00 46 1001.3
20260905172306 38 131 3.2 9.7 0.00 0.00 0.00 45 1001.4
20260905171807 39 305 3.2 9.7 0.00 0.00 0.00 43 1001.5
20260905163806 38 123 3.2 4.8 0.00 0.00 0.00 47 1001.9
20260905162807 37 315 1.6 4.8 0.00 0.00 0.00 50 1002.0
20260905161808 37 93 4.8 11.3 0.00 0.00 0.00 48 1002.1
20260905160806 36 136 1.6 8.0 0.00 0.00 0.00 51 1002.2
20260905160307 36 203 1.6 4.8 0.00 0.00 0.00 51 1002.2
20260905155807 36 315 1.6 8.0 0.00 0.00 0.00 52 1002.3
20260905152806 36 308 1.6 8.0 0.00 0.00 0.00 50 1002.3
20260905152306 35 113 3.2 9.7 0.00 0.00 0.00 51 1002.3
20260905151807 35 296 3.2 4.8 0.00 0.00 0.00 54 1002.3
20260905151307 35 316 1.6 4.8 0.00 0.00 0.00 53 1002.3
20260905150306 35 301 1.6 8.0 0.00 0.00 0.00 54 1002.4
20260905144806 33 291 1.6 4.8 0.00 0.00 0.00 57 1002.3
20260905141806 32 314 3.2 4.8 0.00 0.00 0.00 61 1002.3
20260905141306 32 331 1.6 3.2 0.00 0.00 0.00 61 1002.3
20260905140306 31 141 1.6 3.2 0.00 0.00 0.00 62 1002.2
20260905135806 31 287 0.0 3.2 0.00 0.00 0.00 64 1002.1
20260905134806 30 104 1.6 4.8 0.00 0.00 0.00 65 1002.1
20260905134306 30 85 1.6 4.8 0.00 0.00 0.00 69 1002.2
20260905132807 28 155 0.0 3.2 0.00 0.00 0.00 71 1002.2
20260905131306 28 127 1.6 4.8 0.00 0.00 0.00 73 1002.1
20260905130806 27 141 1.6 4.8 0.00 0.00 0.00 74 1002.1
20260905130306 27 134 0.0 3.2 0.00 0.00 0.00 77 1002.1
20260905124307 26 127 0.0 1.6 0.00 0.00 0.00 80 1002.1
20260905115806 25 317 0.0 1.6 0.00 0.00 0.00 84 1001.8
20260905114807 25 189 0.0 1.6 0.00 0.00 0.00 85 1001.8
20260905114306 25 142 0.0 4.8 0.00 0.00 0.00 84 1001.8
20260905113807 25 15 0.0 3.2 0.00 0.00 0.00 84 1001.7
20260905112806 25 129 0.0 1.6 0.00 0.00 0.00 84 1001.5
20260905104806 25 98 0.0 3.2 0.00 0.00 0.00 83 1001.4
20260905103806 25 120 0.0 3.2 0.00 0.00 0.00 82 1001.4
20260905103307 25 119 0.0 1.6 0.00 0.00 0.00 81 1001.4
20260905102306 25 344 0.0 1.6 0.00 0.00 0.00 82 1001.3
20260905100306 25 57 0.0 0.0 0.00 0.00 0.00 81 1001.3
20260905095806 25 96 0.0 1.6 0.00 0.00 0.00 81 1001.4
20260905095306 25 289 0.0 1.6 0.00 0.00 0.00 81 1001.4
20260905094806 26 319 0.0 0.0 0.00 0.00 0.00 81 1001.3
20260905094306 26 122 0.0 0.0 0.00 0.00 0.00 81 1001.3
20260905093806 26 122 0.0 1.6 0.00 0.00 0.00 81 1001.3
20260905093307 26 319 0.0 0.0 0.00 0.00 0.00 80 1001.2
20260905090806 26 311 0.0 3.2 0.00 0.00 0.00 80 1001.2
20260905090306 26 323 0.0 1.6 0.00 0.00 0.00 80 1001.2
20260905085806 26 147 0.0 0.0 0.00 0.00 0.00 80 1001.2
20260905084306 26 319 0.0 1.6 0.00 0.00 0.00 79 1001.1
20260905081806 26 255 0.0 3.2 0.00 0.00 0.00 78 1001.3
20260905081306 26 128 0.0 1.6 0.00 0.00 0.00 78 1001.4
20260905080306 26 308 1.6 3.2 0.00 0.00 0.00 77 1001.3
20260905073806 26 120 0.0 12.9 0.00 0.00 0.00 76 1001.4
20260905072806 27 322 0.0 0.0 0.00 0.00 0.00 75 1001.4
20260905072308 27 309 0.0 1.6 0.00 0.00 0.00 75 1001.4
20260905071306 27 139 0.0 0.0 0.00 0.00 0.00 75 1001.4
20260905070807 27 171 0.0 0.0 0.00 0.00 0.00 74 1001.4